Brightest
NORAD ID: 23560
Int'l Code: 1995-021A
Perigee: 790.8 km
Apogee: 792.0 km
Inclination: 98.6°
Period: 100.5 min
Semi major axis: 7,162.4 km
Launch date: April 21, 1995
Source: European Space Agency (ESA)
Comments: Earth resources spacecraft; measure ocean surface and waves, temperatures; monitor ozone and ozone-destroying gases; ocean currents and changes in Arctic and Antarctic ice.
Two Line Element Set (TLE):
1 23560U 95021A 10250.09153158 .00000011 00000-0 20143-4 0 5412
2 23560 098.5608 323.8164 0000834 077.2735 282.8545 14.32242178804186
More details about ERS 2